Location: Goettingen
(51.5300°N, 9.9433°E)
Time: 22:45:30
(UTC+02:00)

ISS - Pass Details

Date: 24 October 2020
Orbit: 418 x 420 km, 51.6° (Epoch: 20 October)

Event Time Altitude Azimuth Distance (km) Brightness Sun altitude
Exits shadow 06:04:38 - 184° (S) 2,014 -0.4 -18.6°
Reaches altitude 10° 06:06:57 10° 155° (SSE) 1,492 -0.7 -18.2°
Maximum altitude 06:08:00 11° 137° (SE) 1,425 -0.5 -18.0°
Drops below altitude 10° 06:09:02 10° 119° (ESE) 1,495 -0.1 -17.9°
Sets 06:12:25 0° 83° (E) 2,364 1.8 -17.4°
